AUA45SM LEMG-LOWW

Flight info

Callsign AUA45SM
Flight time 2h 51m
Altitude 38000
Route RIXUR N851 ISTER DCT NIVDA DCT OMEDA DCT RAPUR DCT TORTU DCT ERTEV DCT IDONA/N0454F390 DCT BARPI DCT LAPNA LAPNA2W
Aircraft A20N/M-SDE2E3FGHIRWXY/LB1

Departure

Time 2026-04-22 15:46
Airport Málaga-Costa del Sol Airport (LEMG)

Arrival

Time 2026-04-22 18:38
Airport Vienna International Airport (LOWW)
Time Latitude Longitude Altitude Speed Heading
2026-04-22 15:21 36.67891 -4.49495 45 ft 0 kts 214°
2026-04-22 15:34 36.67899 -4.49488 45 ft 2 kts 214°
2026-04-22 15:34 36.67912 -4.49477 45 ft 2 kts 214°
2026-04-22 15:35 36.67919 -4.49471 45 ft 2 kts 214°
2026-04-22 15:35 36.67931 -4.49452 45 ft 2 kts 267°
2026-04-22 15:35 36.67928 -4.49436 45 ft 0 kts 307°
2026-04-22 15:35 36.67924 -4.49430 45 ft 1 kts 315°
2026-04-22 15:36 36.67923 -4.49428 45 ft 0 kts 313°
2026-04-22 15:39 36.67924 -4.49430 45 ft 1 kts 313°
2026-04-22 15:39 36.67942 -4.49455 45 ft 6 kts 313°
2026-04-22 15:39 36.67981 -4.49510 45 ft 10 kts 311°
2026-04-22 15:39 36.68020 -4.49594 45 ft 10 kts 232°
2026-04-22 15:40 36.67965 -4.49662 45 ft 11 kts 227°
2026-04-22 15:40 36.67907 -4.49733 45 ft 12 kts 222°
2026-04-22 15:40 36.67848 -4.49798 47 ft 10 kts 220°
2026-04-22 15:40 36.67798 -4.49858 48 ft 10 kts 230°
2026-04-22 15:41 36.67820 -4.49946 48 ft 14 kts 318°
2026-04-22 15:41 36.67903 -4.50056 47 ft 19 kts 313°
2026-04-22 15:41 36.68006 -4.50197 46 ft 24 kts 312°
2026-04-22 15:41 36.68121 -4.50360 46 ft 24 kts 312°
2026-04-22 15:42 36.68238 -4.50516 44 ft 24 kts 313°
2026-04-22 15:42 36.68337 -4.50662 45 ft 14 kts 294°
2026-04-22 15:42 36.68314 -4.50770 48 ft 11 kts 291°
2026-04-22 15:42 36.68370 -4.50848 49 ft 13 kts 313°
2026-04-22 15:43 36.68441 -4.50948 51 ft 17 kts 311°
2026-04-22 15:43 36.68503 -4.51065 52 ft 15 kts 269°
2026-04-22 15:43 36.68491 -4.51121 52 ft 0 kts 252°
2026-04-22 15:43 36.68491 -4.51122 52 ft 0 kts 252°
2026-04-22 15:44 36.68491 -4.51124 52 ft 1 kts 252°
2026-04-22 15:44 36.68481 -4.51161 52 ft 8 kts 251°
2026-04-22 15:44 36.68428 -4.51215 54 ft 10 kts 176°
2026-04-22 15:45 36.68382 -4.51159 54 ft 3 kts 130°
2026-04-22 15:45 36.68377 -4.51153 54 ft 1 kts 130°
2026-04-22 15:45 36.68349 -4.51112 54 ft 21 kts 131°
2026-04-22 15:45 36.68076 -4.50729 52 ft 94 kts 131°
2026-04-22 15:46 36.67491 -4.49915 53 ft 153 kts 131°
2026-04-22 15:46 36.66717 -4.48807 280 ft 179 kts 132°
2026-04-22 15:46 36.65884 -4.47657 905 ft 180 kts 132°
2026-04-22 15:46 36.65056 -4.46511 1510 ft 182 kts 131°
2026-04-22 15:47 36.64210 -4.45320 2056 ft 187 kts 131°
2026-04-22 15:47 36.63317 -4.44062 2405 ft 204 kts 131°
2026-04-22 15:47 36.62323 -4.42671 2713 ft 224 kts 131°
2026-04-22 15:47 36.61247 -4.41154 3080 ft 240 kts 131°
2026-04-22 15:48 36.60223 -4.39510 3696 ft 246 kts 117°
2026-04-22 15:48 36.59666 -4.37564 4678 ft 243 kts 103°
2026-04-22 15:48 36.59325 -4.35526 5512 ft 244 kts 103°
2026-04-22 15:48 36.58988 -4.33470 6340 ft 246 kts 103°
2026-04-22 15:49 36.58645 -4.31377 7148 ft 248 kts 104°
2026-04-22 15:49 36.58309 -4.29306 7869 ft 252 kts 102°
2026-04-22 15:49 36.58216 -4.27065 8445 ft 265 kts 89°
2026-04-22 15:49 36.58405 -4.24725 8884 ft 281 kts 86°
2026-04-22 15:50 36.58613 -4.22235 9329 ft 297 kts 87°
2026-04-22 15:50 36.58837 -4.19642 9864 ft 309 kts 86°
2026-04-22 15:50 36.59057 -4.16977 10585 ft 312 kts 88°
2026-04-22 15:50 36.59245 -4.14316 11447 ft 311 kts 88°
2026-04-22 15:51 36.59433 -4.11629 12220 ft 313 kts 88°
2026-04-22 15:51 36.59678 -4.08940 12880 ft 318 kts 81°
2026-04-22 15:51 36.60347 -4.06310 13549 ft 324 kts 67°
2026-04-22 15:51 36.61428 -4.03835 14174 ft 328 kts 60°
2026-04-22 15:52 36.62623 -4.01409 14856 ft 332 kts 59°
2026-04-22 15:52 36.63883 -3.98978 15523 ft 335 kts 52°
2026-04-22 15:52 36.65492 -3.96865 16083 ft 339 kts 38°
2026-04-22 15:52 36.67490 -3.95177 16426 ft 351 kts 28°
2026-04-22 15:53 36.69635 -3.93662 16687 ft 365 kts 27°
2026-04-22 15:53 36.71896 -3.92093 16935 ft 380 kts 27°
2026-04-22 15:53 36.74240 -3.90432 17205 ft 394 kts 27°
2026-04-22 15:53 36.76654 -3.88692 17474 ft 406 kts 28°
2026-04-22 15:54 36.79118 -3.86900 17959 ft 411 kts 28°
2026-04-22 15:54 36.81593 -3.85094 18559 ft 414 kts 28°
2026-04-22 15:54 36.84075 -3.83284 19140 ft 416 kts 28°
2026-04-22 15:54 36.86571 -3.81464 19699 ft 418 kts 28°
2026-04-22 15:55 36.89081 -3.79632 20243 ft 421 kts 28°
2026-04-22 15:55 36.91614 -3.77782 20792 ft 424 kts 28°
2026-04-22 15:55 36.94165 -3.75916 21328 ft 426 kts 28°
2026-04-22 15:55 36.96738 -3.74032 21874 ft 428 kts 27°
2026-04-22 15:56 36.99316 -3.72143 22412 ft 430 kts 28°
2026-04-22 15:56 37.01906 -3.70243 22934 ft 432 kts 27°
2026-04-22 15:56 37.04493 -3.68344 23437 ft 435 kts 27°
2026-04-22 15:56 37.07116 -3.66415 23932 ft 437 kts 28°
2026-04-22 15:57 37.09592 -3.64169 24382 ft 444 kts 39°
2026-04-22 15:57 37.11595 -3.61418 24814 ft 450 kts 51°
2026-04-22 15:57 37.13277 -3.57908 25253 ft 455 kts 60°
2026-04-22 15:57 37.14685 -3.54350 25680 ft 458 kts 62°
2026-04-22 15:58 37.16067 -3.50751 26072 ft 461 kts 62°
2026-04-22 15:58 37.17477 -3.47097 26460 ft 464 kts 62°
2026-04-22 15:58 37.18895 -3.43451 26844 ft 466 kts 62°
2026-04-22 15:58 37.20324 -3.39803 27221 ft 468 kts 61°
2026-04-22 15:59 37.21763 -3.36142 27579 ft 471 kts 61°
2026-04-22 15:59 37.23216 -3.32447 27920 ft 473 kts 62°
2026-04-22 15:59 37.24651 -3.28797 28238 ft 475 kts 62°
2026-04-22 15:59 37.26116 -3.25067 28537 ft 477 kts 61°
2026-04-22 16:00 37.27588 -3.21316 28830 ft 478 kts 61°
2026-04-22 16:00 37.29065 -3.17548 29101 ft 480 kts 61°
2026-04-22 16:00 37.30538 -3.13783 29359 ft 481 kts 61°
2026-04-22 16:00 37.31994 -3.10055 29675 ft 481 kts 61°
2026-04-22 16:01 37.33461 -3.06288 30056 ft 479 kts 61°
2026-04-22 16:01 37.34929 -3.02518 30407 ft 478 kts 61°
2026-04-22 16:01 37.36381 -2.98786 30719 ft 476 kts 61°
2026-04-22 16:01 37.37815 -2.95093 30998 ft 476 kts 61°
2026-04-22 16:02 37.39265 -2.91358 31265 ft 476 kts 61°
2026-04-22 16:02 37.40722 -2.87599 31530 ft 475 kts 61°
2026-04-22 16:02 37.42165 -2.83871 31817 ft 474 kts 61°
2026-04-22 16:02 37.43607 -2.80145 32090 ft 473 kts 61°
2026-04-22 16:03 37.45044 -2.76432 32364 ft 472 kts 61°
2026-04-22 16:03 37.46477 -2.72720 32635 ft 471 kts 61°
2026-04-22 16:03 37.47904 -2.69019 32877 ft 471 kts 62°
2026-04-22 16:03 37.49329 -2.65320 33127 ft 470 kts 62°
2026-04-22 16:04 37.50748 -2.61628 33359 ft 470 kts 62°
2026-04-22 16:04 37.52161 -2.57945 33598 ft 469 kts 62°
2026-04-22 16:04 37.53572 -2.54262 33834 ft 468 kts 62°
2026-04-22 16:04 37.54986 -2.50570 34066 ft 468 kts 62°
2026-04-22 16:05 37.56390 -2.46897 34331 ft 466 kts 62°
2026-04-22 16:05 37.57789 -2.43234 34599 ft 465 kts 62°
2026-04-22 16:05 37.59189 -2.39563 34865 ft 464 kts 61°
2026-04-22 16:05 37.60582 -2.35904 35121 ft 463 kts 61°
2026-04-22 16:06 37.61964 -2.32274 35351 ft 462 kts 62°
2026-04-22 16:06 37.63353 -2.28625 35561 ft 462 kts 62°
2026-04-22 16:06 37.64741 -2.24980 35765 ft 461 kts 62°
2026-04-22 16:06 37.66127 -2.21336 35960 ft 461 kts 62°
2026-04-22 16:07 37.67509 -2.17698 36145 ft 460 kts 62°
2026-04-22 16:07 37.68886 -2.14065 36314 ft 460 kts 62°
2026-04-22 16:07 37.70264 -2.10427 36458 ft 460 kts 62°
2026-04-22 16:07 37.71640 -2.06787 36577 ft 461 kts 62°
2026-04-22 16:08 37.73021 -2.03131 36699 ft 461 kts 62°
2026-04-22 16:08 37.74402 -1.99468 36831 ft 461 kts 62°
2026-04-22 16:08 37.75778 -1.95814 36958 ft 461 kts 62°
2026-04-22 16:08 37.77140 -1.92195 37076 ft 461 kts 62°
2026-04-22 16:09 37.78514 -1.88538 37185 ft 461 kts 62°
2026-04-22 16:09 37.79897 -1.84850 37285 ft 462 kts 62°
2026-04-22 16:09 37.82644 -1.77518 37410 ft 461 kts 62°
2026-04-22 16:10 37.85373 -1.70216 37131 ft 462 kts 62°
2026-04-22 16:10 37.86298 -1.67738 36995 ft 463 kts 62°
2026-04-22 16:10 37.88123 -1.62837 36835 ft 466 kts 62°
2026-04-22 16:11 37.90875 -1.55433 37065 ft 465 kts 62°
2026-04-22 16:11 37.92244 -1.51748 37204 ft 464 kts 61°
2026-04-22 16:11 37.93610 -1.48067 37334 ft 464 kts 61°
2026-04-22 16:12 37.94981 -1.44365 37459 ft 463 kts 61°
2026-04-22 16:12 37.96336 -1.40705 37562 ft 463 kts 61°
2026-04-22 16:12 37.99070 -1.33296 37704 ft 463 kts 62°
2026-04-22 16:13 38.01781 -1.25935 37793 ft 464 kts 62°
2026-04-22 16:13 38.04507 -1.18510 37914 ft 464 kts 62°
2026-04-22 16:14 38.07222 -1.11097 37950 ft 465 kts 62°
2026-04-22 16:14 38.09959 -1.03609 37950 ft 466 kts 62°
2026-04-22 16:15 38.12684 -0.96132 37945 ft 468 kts 62°
2026-04-22 16:15 38.15398 -0.88664 37941 ft 469 kts 62°
2026-04-22 16:16 38.18136 -0.81113 37938 ft 470 kts 62°
2026-04-22 16:16 38.20867 -0.73558 37935 ft 470 kts 62°
2026-04-22 16:17 38.23580 -0.66037 37936 ft 470 kts 62°
2026-04-22 16:17 38.26284 -0.58520 37939 ft 470 kts 62°
2026-04-22 16:18 38.28825 -0.50835 37939 ft 471 kts 64°
2026-04-22 16:18 38.31282 -0.43119 37940 ft 471 kts 64°
2026-04-22 16:19 38.33725 -0.35433 37939 ft 471 kts 64°
2026-04-22 16:19 38.36188 -0.27689 37935 ft 471 kts 65°
2026-04-22 16:20 38.38720 -0.20063 37931 ft 471 kts 64°
2026-04-22 16:20 38.41294 -0.12377 37934 ft 470 kts 64°
2026-04-22 16:21 38.43845 -0.04694 37934 ft 471 kts 64°
2026-04-22 16:21 38.46359 0.02974 37935 ft 471 kts 64°
2026-04-22 16:22 38.50077 0.14569 37937 ft 471 kts 64°
2026-04-22 16:23 38.53793 0.26193 37939 ft 471 kts 64°
2026-04-22 16:23 38.56246 0.33885 37939 ft 471 kts 64°
2026-04-22 16:24 38.59946 0.45538 37942 ft 472 kts 65°
2026-04-22 16:25 38.62403 0.53297 37942 ft 472 kts 64°
2026-04-22 16:25 38.66082 0.64966 37945 ft 472 kts 65°
2026-04-22 16:26 38.68513 0.72692 37945 ft 472 kts 65°
2026-04-22 16:26 38.70958 0.80481 37945 ft 473 kts 65°
2026-04-22 16:27 38.73414 0.88329 37947 ft 473 kts 65°
2026-04-22 16:27 38.75835 0.96096 37952 ft 473 kts 65°
2026-04-22 16:28 38.78264 1.03909 37955 ft 474 kts 65°
2026-04-22 16:28 38.80692 1.11746 37958 ft 474 kts 65°
2026-04-22 16:29 38.83121 1.19604 37960 ft 474 kts 65°
2026-04-22 16:29 38.85521 1.27395 37959 ft 473 kts 65°
2026-04-22 16:30 38.87928 1.35222 37962 ft 473 kts 65°
2026-04-22 16:30 38.90323 1.43045 37964 ft 472 kts 65°
2026-04-22 16:31 38.92697 1.50881 37963 ft 473 kts 66°
2026-04-22 16:31 38.95032 1.58794 37962 ft 472 kts 66°
2026-04-22 16:32 38.97333 1.66626 37959 ft 472 kts 66°
2026-04-22 16:32 38.99654 1.74531 37958 ft 472 kts 66°
2026-04-22 16:33 39.01968 1.82438 37959 ft 473 kts 66°
2026-04-22 16:33 39.04270 1.90325 37956 ft 472 kts 66°
2026-04-22 16:34 39.06564 1.98208 37956 ft 472 kts 66°
2026-04-22 16:34 39.08857 2.06114 37955 ft 471 kts 66°
2026-04-22 16:35 39.11132 2.13974 37956 ft 471 kts 66°
2026-04-22 16:35 39.13440 2.21972 37957 ft 471 kts 66°
2026-04-22 16:36 39.15714 2.29885 37958 ft 471 kts 66°
2026-04-22 16:36 39.17975 2.37773 37956 ft 470 kts 66°
2026-04-22 16:37 39.20225 2.45644 37956 ft 470 kts 66°
2026-04-22 16:37 39.22472 2.53538 37955 ft 469 kts 66°
2026-04-22 16:38 39.24707 2.61404 37953 ft 469 kts 66°
2026-04-22 16:38 39.26925 2.69236 37954 ft 468 kts 66°
2026-04-22 16:39 39.29158 2.77136 37961 ft 468 kts 66°
2026-04-22 16:39 39.31382 2.85017 37961 ft 467 kts 66°
2026-04-22 16:40 39.33584 2.92855 37964 ft 468 kts 66°
2026-04-22 16:41 39.36887 3.04657 37963 ft 466 kts 66°
2026-04-22 16:41 39.39077 3.12514 37962 ft 466 kts 66°
2026-04-22 16:42 39.41282 3.20381 37964 ft 466 kts 64°
2026-04-22 16:42 39.43897 3.27949 37962 ft 462 kts 58°
2026-04-22 16:43 39.47078 3.35174 37964 ft 460 kts 54°
2026-04-22 16:43 39.50333 3.42219 37959 ft 459 kts 54°
2026-04-22 16:44 39.53595 3.49305 37959 ft 460 kts 54°
2026-04-22 16:44 39.56847 3.56402 37960 ft 460 kts 54°
2026-04-22 16:45 39.60101 3.63529 37958 ft 459 kts 54°
2026-04-22 16:45 39.63339 3.70631 37955 ft 459 kts 55°
2026-04-22 16:46 39.66573 3.77745 37959 ft 459 kts 55°
2026-04-22 16:46 39.69801 3.84862 37963 ft 458 kts 55°
2026-04-22 16:47 39.73024 3.91984 37965 ft 458 kts 55°
2026-04-22 16:47 39.76244 3.99117 37968 ft 458 kts 55°
2026-04-22 16:48 39.79435 4.06200 37969 ft 458 kts 55°
2026-04-22 16:48 39.82649 4.13354 37976 ft 458 kts 55°
2026-04-22 16:49 39.85860 4.20519 37980 ft 458 kts 54°
2026-04-22 16:49 39.89057 4.27639 37979 ft 459 kts 54°
2026-04-22 16:50 39.92269 4.34797 37980 ft 459 kts 54°
2026-04-22 16:50 39.95463 4.41941 37983 ft 459 kts 54°
2026-04-22 16:51 39.98664 4.49117 37981 ft 459 kts 54°
2026-04-22 16:51 40.01872 4.56329 37986 ft 460 kts 55°
2026-04-22 16:52 40.05098 4.63488 37988 ft 458 kts 52°
2026-04-22 16:52 40.08746 4.70229 37981 ft 454 kts 47°
2026-04-22 16:53 40.12758 4.76582 37978 ft 453 kts 45°
2026-04-22 16:53 40.16802 4.82913 37975 ft 454 kts 45°
2026-04-22 16:54 40.20816 4.89221 37975 ft 454 kts 45°
2026-04-22 16:54 40.24846 4.95575 37976 ft 454 kts 45°
2026-04-22 16:55 40.28859 5.01917 37977 ft 455 kts 45°
2026-04-22 16:55 40.32890 5.08300 37977 ft 454 kts 45°
2026-04-22 16:56 40.36886 5.14645 37973 ft 454 kts 45°
2026-04-22 16:56 40.40909 5.21045 37973 ft 456 kts 46°
2026-04-22 16:57 40.44949 5.27484 37978 ft 456 kts 46°
2026-04-22 16:57 40.48954 5.33880 37984 ft 457 kts 46°
2026-04-22 16:58 40.52330 5.39284 37982 ft 458 kts 46°
2026-04-22 16:58 40.57026 5.46816 37986 ft 460 kts 46°
2026-04-22 16:59 40.61085 5.53343 37985 ft 461 kts 46°
2026-04-22 16:59 40.65131 5.59859 37986 ft 461 kts 46°
2026-04-22 17:00 40.69192 5.66416 37986 ft 463 kts 47°
2026-04-22 17:00 40.75277 5.76263 37978 ft 464 kts 47°
2026-04-22 17:01 40.79355 5.82887 37978 ft 464 kts 47°
2026-04-22 17:01 40.83399 5.89465 37980 ft 465 kts 47°
2026-04-22 17:02 40.87466 5.96090 37980 ft 466 kts 47°
2026-04-22 17:02 40.91533 6.02737 37976 ft 466 kts 47°
2026-04-22 17:03 40.95606 6.09406 37980 ft 466 kts 47°
2026-04-22 17:03 40.97638 6.12739 37702 ft 465 kts 47°
2026-04-22 17:03 40.99663 6.16066 38073 ft 465 kts 47°
2026-04-22 17:04 41.03688 6.22685 37781 ft 465 kts 47°
2026-04-22 17:04 41.05714 6.26023 37915 ft 464 kts 47°
2026-04-22 17:04 41.07737 6.29357 37962 ft 465 kts 47°
2026-04-22 17:05 41.11794 6.36058 37977 ft 467 kts 47°
2026-04-22 17:05 41.15853 6.42778 37980 ft 467 kts 47°
2026-04-22 17:06 41.19903 6.49501 37978 ft 467 kts 47°
2026-04-22 17:06 41.23933 6.56202 37983 ft 467 kts 47°
2026-04-22 17:07 41.28038 6.62860 37984 ft 466 kts 46°
2026-04-22 17:07 41.32158 6.69458 37990 ft 461 kts 47°
2026-04-22 17:08 41.36231 6.76006 37992 ft 460 kts 47°
2026-04-22 17:08 41.40306 6.82584 37996 ft 460 kts 47°
2026-04-22 17:09 41.44369 6.89163 37995 ft 459 kts 47°
2026-04-22 17:09 41.48399 6.95702 38003 ft 459 kts 47°
2026-04-22 17:10 41.52437 7.02270 37998 ft 458 kts 47°
2026-04-22 17:10 41.56495 7.08887 38004 ft 458 kts 47°
2026-04-22 17:11 41.60503 7.15432 38007 ft 457 kts 46°
2026-04-22 17:11 41.64520 7.22009 38006 ft 458 kts 46°
2026-04-22 17:12 41.68525 7.28576 38000 ft 457 kts 47°
2026-04-22 17:12 41.72544 7.35184 38001 ft 457 kts 47°
2026-04-22 17:13 41.76530 7.41758 38007 ft 456 kts 46°
2026-04-22 17:13 41.80521 7.48347 38006 ft 456 kts 46°
2026-04-22 17:14 41.84493 7.54919 38001 ft 456 kts 46°
2026-04-22 17:14 41.88482 7.61536 38002 ft 456 kts 46°
2026-04-22 17:15 41.92451 7.68132 38006 ft 456 kts 47°
2026-04-22 17:15 41.96423 7.74748 38005 ft 455 kts 47°
2026-04-22 17:16 42.00385 7.81368 38005 ft 455 kts 47°
2026-04-22 17:16 42.04346 7.87995 37993 ft 456 kts 47°
2026-04-22 17:17 42.08307 7.94639 38008 ft 456 kts 46°
2026-04-22 17:17 42.12250 8.01269 38009 ft 456 kts 46°
2026-04-22 17:18 42.16287 8.07871 37997 ft 456 kts 46°
2026-04-22 17:18 42.20220 8.14571 37985 ft 458 kts 47°
2026-04-22 17:19 42.28169 8.28007 37989 ft 456 kts 43°
2026-04-22 17:20 42.32575 8.33686 37992 ft 422 kts 33°
2026-04-22 17:20 42.37172 8.38030 37991 ft 390 kts 24°
2026-04-22 17:21 42.44554 8.42733 38009 ft 397 kts 16°
2026-04-22 17:22 42.52369 8.47037 38009 ft 409 kts 16°
2026-04-22 17:23 42.57467 8.49866 38025 ft 416 kts 16°
2026-04-22 17:23 42.64909 8.54013 38027 ft 426 kts 16°
2026-04-22 17:24 42.70414 8.57089 38027 ft 431 kts 16°
2026-04-22 17:24 42.75977 8.60204 38027 ft 436 kts 16°
2026-04-22 17:25 42.81601 8.63360 38048 ft 439 kts 16°
2026-04-22 17:25 42.87234 8.66529 38062 ft 439 kts 17°
2026-04-22 17:26 42.92850 8.69689 38066 ft 438 kts 17°
2026-04-22 17:26 42.98492 8.72876 38078 ft 439 kts 17°
2026-04-22 17:27 43.04108 8.76054 38076 ft 438 kts 17°
2026-04-22 17:27 43.09729 8.79242 38075 ft 439 kts 17°
2026-04-22 17:28 43.15382 8.82454 38080 ft 440 kts 17°
2026-04-22 17:28 43.21005 8.85656 38077 ft 440 kts 17°
2026-04-22 17:29 43.26634 8.88868 38077 ft 438 kts 17°
2026-04-22 17:29 43.32258 8.91954 38080 ft 436 kts 13°
2026-04-22 17:30 43.38079 8.94233 38078 ft 431 kts
2026-04-22 17:30 43.43920 8.95525 38059 ft 425 kts 360°
2026-04-22 17:31 43.49778 8.95889 38063 ft 420 kts 355°
2026-04-22 17:31 43.55625 8.96001 38070 ft 425 kts 360°
2026-04-22 17:32 43.61455 8.97653 38049 ft 435 kts 12°
2026-04-22 17:32 43.66984 9.01233 38045 ft 447 kts 25°
2026-04-22 17:33 43.71860 9.06623 38048 ft 458 kts 37°
2026-04-22 17:33 43.76388 9.12790 38056 ft 458 kts 38°
2026-04-22 17:34 43.80900 9.18984 38054 ft 457 kts 38°
2026-04-22 17:34 43.85427 9.25177 38047 ft 458 kts 37°
2026-04-22 17:35 43.89958 9.31373 38048 ft 458 kts 37°
2026-04-22 17:35 43.94470 9.37625 38058 ft 461 kts 39°
2026-04-22 17:36 43.98629 9.44442 38047 ft 466 kts 46°
2026-04-22 17:36 44.02250 9.51972 38092 ft 473 kts 52°
2026-04-22 17:37 44.05544 9.59844 38283 ft 472 kts 53°
2026-04-22 17:37 44.08821 9.67743 38344 ft 474 kts 53°
2026-04-22 17:38 44.12114 9.75674 38479 ft 474 kts 53°
2026-04-22 17:38 44.15380 9.83550 38636 ft 473 kts 54°
2026-04-22 17:39 44.18675 9.91509 38721 ft 473 kts 53°
2026-04-22 17:39 44.21939 9.99423 38842 ft 473 kts 54°
2026-04-22 17:40 44.23563 10.03362 38873 ft 473 kts 54°
2026-04-22 17:40 44.26830 10.11315 38939 ft 474 kts 54°
2026-04-22 17:41 44.30090 10.19273 38976 ft 474 kts 54°
2026-04-22 17:41 44.31728 10.23275 39082 ft 473 kts 54°
2026-04-22 17:41 44.33351 10.27246 39072 ft 473 kts 53°
2026-04-22 17:42 44.36590 10.35197 39058 ft 473 kts 53°
2026-04-22 17:42 44.39831 10.43168 39053 ft 473 kts 53°
2026-04-22 17:43 44.43050 10.51109 39073 ft 472 kts 54°
2026-04-22 17:43 44.46277 10.59099 39086 ft 472 kts 53°
2026-04-22 17:44 44.49495 10.67083 39088 ft 472 kts 54°
2026-04-22 17:44 44.52706 10.75076 39100 ft 472 kts 54°
2026-04-22 17:45 44.55925 10.83106 39101 ft 471 kts 54°
2026-04-22 17:45 44.59104 10.91065 39096 ft 471 kts 54°
2026-04-22 17:46 44.62302 10.99088 39117 ft 472 kts 55°
2026-04-22 17:46 44.65470 11.07065 39092 ft 471 kts 55°
2026-04-22 17:47 44.68653 11.15097 39121 ft 471 kts 55°
2026-04-22 17:47 44.71806 11.23078 39138 ft 470 kts 55°
2026-04-22 17:48 44.74441 11.29767 39118 ft 470 kts 55°
2026-04-22 17:48 44.78123 11.39140 39122 ft 470 kts 55°
2026-04-22 17:49 44.81276 11.47184 39113 ft 470 kts 55°
2026-04-22 17:49 44.84420 11.55239 39125 ft 469 kts 56°
2026-04-22 17:50 44.87550 11.63280 39126 ft 469 kts 55°
2026-04-22 17:50 44.90690 11.71360 39116 ft 470 kts 56°
2026-04-22 17:51 44.93796 11.79386 39125 ft 470 kts 56°
2026-04-22 17:51 44.96923 11.87489 39135 ft 471 kts 56°
2026-04-22 17:52 45.00034 11.95571 39129 ft 470 kts 56°
2026-04-22 17:52 45.03147 12.03682 39121 ft 470 kts 56°
2026-04-22 17:53 45.06244 12.11773 39138 ft 469 kts 57°
2026-04-22 17:53 45.09337 12.19883 39127 ft 468 kts 57°
2026-04-22 17:54 45.12417 12.27975 39129 ft 468 kts 57°
2026-04-22 17:54 45.15482 12.36061 39134 ft 468 kts 57°
2026-04-22 17:55 45.18041 12.42830 39120 ft 468 kts 57°
2026-04-22 17:55 45.21621 12.52322 39123 ft 469 kts 56°
2026-04-22 17:56 45.24673 12.60445 39116 ft 468 kts 57°
2026-04-22 17:56 45.27723 12.68585 39126 ft 468 kts 57°
2026-04-22 17:57 45.30757 12.76700 39123 ft 467 kts 58°
2026-04-22 17:57 45.33783 12.84822 39117 ft 466 kts 58°
2026-04-22 17:58 45.36793 12.92930 39114 ft 466 kts 58°
2026-04-22 17:58 45.39803 13.01055 39117 ft 465 kts 58°
2026-04-22 17:59 45.42809 13.09197 39094 ft 465 kts 58°
2026-04-22 17:59 45.45799 13.17316 39108 ft 465 kts 58°
2026-04-22 18:00 45.48273 13.24056 39110 ft 465 kts 58°
2026-04-22 18:00 45.51752 13.33556 39092 ft 465 kts 58°
2026-04-22 18:01 45.54722 13.41701 39105 ft 464 kts 58°
2026-04-22 18:01 45.57723 13.49843 39102 ft 462 kts 56°
2026-04-22 18:02 45.61127 13.57527 39115 ft 460 kts 51°
2026-04-22 18:02 45.64780 13.64975 39100 ft 459 kts 50°
2026-04-22 18:03 45.68438 13.72416 39097 ft 459 kts 51°
2026-04-22 18:03 45.72098 13.79900 39114 ft 459 kts 51°
2026-04-22 18:04 45.75734 13.87361 39093 ft 460 kts 51°
2026-04-22 18:04 45.79393 13.94890 39095 ft 460 kts 51°
2026-04-22 18:05 45.83032 14.02399 39098 ft 459 kts 51°
2026-04-22 18:05 45.86646 14.09878 39102 ft 459 kts 51°
2026-04-22 18:06 45.90257 14.17377 39096 ft 459 kts 51°
2026-04-22 18:06 45.93876 14.24903 39111 ft 458 kts 51°
2026-04-22 18:07 45.97483 14.32427 39119 ft 458 kts 51°
2026-04-22 18:07 46.01071 14.39932 39122 ft 458 kts 51°
2026-04-22 18:08 46.04665 14.47470 39129 ft 457 kts 51°
2026-04-22 18:08 46.08270 14.55052 39136 ft 457 kts 51°
2026-04-22 18:09 46.11828 14.62556 39135 ft 457 kts 51°
2026-04-22 18:09 46.15400 14.70107 39135 ft 456 kts 52°
2026-04-22 18:10 46.19631 14.76734 39138 ft 448 kts 34°
2026-04-22 18:10 46.22124 14.79417 39035 ft 449 kts 33°
2026-04-22 18:10 46.24653 14.82055 38791 ft 447 kts 33°
2026-04-22 18:10 46.27153 14.84658 38550 ft 447 kts 33°
2026-04-22 18:11 46.29675 14.87298 38181 ft 447 kts 33°
2026-04-22 18:11 46.32154 14.89903 37750 ft 445 kts 33°
2026-04-22 18:11 46.32961 14.90755 37566 ft 443 kts 33°
2026-04-22 18:11 46.35409 14.93346 37136 ft 439 kts 33°
2026-04-22 18:12 46.37857 14.95954 36700 ft 434 kts 34°
2026-04-22 18:12 46.40237 14.98521 36267 ft 430 kts 33°
2026-04-22 18:12 46.41863 15.00246 35972 ft 430 kts 33°
2026-04-22 18:12 46.45039 15.03607 35417 ft 428 kts 33°
2026-04-22 18:13 46.47445 15.06158 34993 ft 427 kts 33°
2026-04-22 18:13 46.49844 15.08709 34564 ft 426 kts 34°
2026-04-22 18:13 46.52229 15.11253 34129 ft 425 kts 34°
2026-04-22 18:13 46.54575 15.13763 33723 ft 424 kts 34°
2026-04-22 18:14 46.56921 15.16277 33364 ft 424 kts 34°
2026-04-22 18:14 46.59297 15.18825 32996 ft 423 kts 34°
2026-04-22 18:14 46.61673 15.21378 32627 ft 423 kts 35°
2026-04-22 18:14 46.64006 15.23888 32356 ft 423 kts 35°
2026-04-22 18:15 46.66378 15.26443 31977 ft 423 kts 35°
2026-04-22 18:15 46.68715 15.28962 31601 ft 423 kts 35°
2026-04-22 18:15 46.71081 15.31515 31217 ft 422 kts 35°
2026-04-22 18:15 46.73441 15.34065 30796 ft 422 kts 35°
2026-04-22 18:16 46.75790 15.36608 30310 ft 422 kts 35°
2026-04-22 18:16 46.78121 15.39133 29815 ft 423 kts 35°
2026-04-22 18:16 46.80505 15.41719 29523 ft 423 kts 35°
2026-04-22 18:16 46.82840 15.44250 29279 ft 423 kts 35°
2026-04-22 18:17 46.85202 15.46815 29028 ft 421 kts 36°
2026-04-22 18:17 46.87521 15.49338 28780 ft 419 kts 36°
2026-04-22 18:17 46.89861 15.51887 28528 ft 417 kts 36°
2026-04-22 18:17 46.92189 15.54409 28275 ft 415 kts 35°
2026-04-22 18:18 46.94506 15.56914 27955 ft 413 kts 35°
2026-04-22 18:18 46.96795 15.59390 27441 ft 411 kts 35°
2026-04-22 18:18 46.99067 15.61853 26772 ft 409 kts 35°
2026-04-22 18:18 47.01332 15.64311 26041 ft 409 kts 35°
2026-04-22 18:19 47.03640 15.66819 25243 ft 409 kts 36°
2026-04-22 18:19 47.05913 15.69292 24455 ft 408 kts 36°
2026-04-22 18:19 47.08163 15.71741 23649 ft 406 kts 36°
2026-04-22 18:19 47.10449 15.74232 22852 ft 404 kts 36°
2026-04-22 18:20 47.12672 15.76656 22075 ft 402 kts 36°
2026-04-22 18:20 47.14920 15.79114 21289 ft 400 kts 36°
2026-04-22 18:20 47.17110 15.81510 20529 ft 397 kts 36°
2026-04-22 18:20 47.19320 15.83930 20001 ft 389 kts 36°
2026-04-22 18:21 47.21457 15.86274 19344 ft 385 kts 36°
2026-04-22 18:21 47.23600 15.88627 18744 ft 380 kts 36°
2026-04-22 18:21 47.25695 15.90929 18192 ft 374 kts 36°
2026-04-22 18:21 47.27742 15.93180 17660 ft 369 kts 36°
2026-04-22 18:22 47.29792 15.95438 17121 ft 364 kts 36°
2026-04-22 18:22 47.31788 15.97639 16582 ft 359 kts 36°
2026-04-22 18:22 47.33766 15.99822 16052 ft 355 kts 36°
2026-04-22 18:22 47.35746 16.02009 15503 ft 352 kts 36°
2026-04-22 18:23 47.37678 16.04145 14972 ft 349 kts 36°
2026-04-22 18:23 47.39619 16.06293 14420 ft 346 kts 36°
2026-04-22 18:23 47.41531 16.08411 13881 ft 344 kts 36°
2026-04-22 18:24 47.45299 16.12589 12843 ft 338 kts 35°
2026-04-22 18:24 47.47160 16.14655 12337 ft 335 kts 35°
2026-04-22 18:24 47.50850 16.18758 11315 ft 330 kts 35°
2026-04-22 18:25 47.52666 16.20782 10901 ft 324 kts 35°
2026-04-22 18:25 47.54435 16.22754 10591 ft 315 kts 35°
2026-04-22 18:25 47.56156 16.24674 10458 ft 301 kts 34°
2026-04-22 18:26 47.59325 16.28218 10275 ft 273 kts 34°
2026-04-22 18:26 47.60811 16.29880 10150 ft 262 kts 34°
2026-04-22 18:26 47.62268 16.31509 9755 ft 261 kts 34°
2026-04-22 18:26 47.63703 16.33113 9406 ft 259 kts 34°
2026-04-22 18:27 47.65148 16.34728 9048 ft 258 kts 34°
2026-04-22 18:27 47.66558 16.36308 8711 ft 256 kts 34°
2026-04-22 18:27 47.67979 16.37903 8363 ft 254 kts 34°
2026-04-22 18:27 47.69370 16.39464 8041 ft 252 kts 34°
2026-04-22 18:28 47.70770 16.41036 7703 ft 250 kts 34°
2026-04-22 18:28 47.72143 16.42581 7376 ft 248 kts 34°
2026-04-22 18:28 47.73514 16.44122 7044 ft 247 kts 34°
2026-04-22 18:28 47.74853 16.45631 6690 ft 239 kts 34°
2026-04-22 18:29 47.76154 16.47099 6345 ft 229 kts 34°
2026-04-22 18:29 47.77412 16.48518 6111 ft 227 kts 33°
2026-04-22 18:29 47.78657 16.49921 5773 ft 225 kts 33°
2026-04-22 18:29 47.79899 16.51321 5414 ft 225 kts 33°
2026-04-22 18:30 47.81158 16.52742 5059 ft 225 kts 33°
2026-04-22 18:30 47.83643 16.55549 4366 ft 226 kts 33°
2026-04-22 18:30 47.84891 16.56961 4063 ft 224 kts 33°
2026-04-22 18:31 47.86100 16.58333 4001 ft 210 kts 33°
2026-04-22 18:31 47.87218 16.59608 3889 ft 201 kts 33°
2026-04-22 18:31 47.88334 16.60870 3563 ft 203 kts 32°
2026-04-22 18:31 47.89468 16.62150 3232 ft 204 kts 33°
2026-04-22 18:32 47.90581 16.63411 3016 ft 198 kts 33°
2026-04-22 18:32 47.91629 16.64606 3001 ft 183 kts 33°
2026-04-22 18:32 47.92641 16.65460 3048 ft 149 kts 13°
2026-04-22 18:32 47.93640 16.65534 3052 ft 144 kts 352°
2026-04-22 18:33 47.94619 16.65175 3029 ft 144 kts 346°
2026-04-22 18:33 47.95570 16.64769 3020 ft 144 kts 345°
2026-04-22 18:33 47.96542 16.64350 3015 ft 145 kts 346°
2026-04-22 18:33 47.97504 16.63938 2888 ft 144 kts 346°
2026-04-22 18:34 47.98479 16.63523 2692 ft 144 kts 346°
2026-04-22 18:34 47.99439 16.63116 2497 ft 144 kts 345°
2026-04-22 18:34 48.00401 16.62710 2305 ft 144 kts 345°
2026-04-22 18:34 48.01364 16.62303 2114 ft 145 kts 345°
2026-04-22 18:35 48.02337 16.61892 1922 ft 145 kts 345°
2026-04-22 18:35 48.03307 16.61482 1731 ft 145 kts 345°
2026-04-22 18:35 48.04290 16.61066 1533 ft 145 kts 345°
2026-04-22 18:35 48.05262 16.60656 1338 ft 146 kts 345°
2026-04-22 18:36 48.06242 16.60239 1143 ft 148 kts 345°
2026-04-22 18:36 48.07238 16.59819 939 ft 149 kts 344°
2026-04-22 18:36 48.08231 16.59390 710 ft 146 kts 344°
2026-04-22 18:36 48.09147 16.59015 586 ft 127 kts 344°
2026-04-22 18:37 48.09860 16.58707 599 ft 86 kts 344°
2026-04-22 18:37 48.10405 16.58470 600 ft 78 kts 348°
2026-04-22 18:37 48.10751 16.58333 598 ft 74 kts 344°
2026-04-22 18:37 48.11370 16.58074 593 ft 67 kts 344°
2026-04-22 18:38 48.11737 16.57916 593 ft 30 kts 345°
2026-04-22 18:38 48.11860 16.57736 592 ft 25 kts 277°
2026-04-22 18:38 48.11850 16.57633 592 ft 0 kts 255°
2026-04-22 18:39 48.11850 16.57629 592 ft 2 kts 255°
2026-04-22 18:40 48.11840 16.57578 592 ft 8 kts 256°
2026-04-22 18:40 48.11820 16.57470 593 ft 12 kts 254°
2026-04-22 18:40 48.11815 16.57334 597 ft 14 kts 295°
2026-04-22 18:40 48.11853 16.57184 598 ft 15 kts 273°
2026-04-22 18:41 48.11889 16.57037 598 ft 15 kts 298°
2026-04-22 18:41 48.11937 16.56897 594 ft 10 kts 292°
2026-04-22 18:41 48.11901 16.56840 595 ft 6 kts 207°
2026-04-22 18:41 48.11886 16.56830 596 ft 0 kts 206°
2026-04-22 18:42 48.11885 16.56829 596 ft 0 kts 205°
2026-04-22 18:42 48.11883 16.56827 596 ft 0 kts 206°
2026-04-22 18:42 48.11882 16.56827 596 ft 0 kts 206°